Weather History for KDTL - August, 2013

Change the Weather History Date:

Tuesday, August 6, 2013

  Actual Average (WUND) Record (WUND)
Temperature  
Mean Temperature 63 °F -  
Max Temperature 73 °F - - (-1)
Min Temperature 53 °F - - (-1)
Degree Days  
Heating Degree Days 2    
Growing Degree Days 13 (Base 50)    
Moisture  
Dew Point 58 °F    
Average Humidity 88    
Maximum Humidity 100    
Minimum Humidity 53    
Precipitation  
Precipitation 0.00 in - - ()
Sea Level Pressure  
Sea Level Pressure 29.80 in    
Wind  
Wind Speed 5 mph (SW)    
Max Wind Speed 16 mph    
Max Gust Speed 17 mph    
Visibility 10 miles    
Events Rain , Thunderstorm    
Averages and records for this station are not official NWS values.
T = Trace of Precipitation, MM = Missing Value Source: NWS Daily Summary

Daily Weather History Graph

Daily Weather History Graph

Search for Another Location

Airport or City:

Trip Planner

Search our weather history database for the weather conditions in past years. The results will help you decide how hot, cold, wet, or windy it might be!

Date:

Astronomy

Aug. 06, 2013 Rise Set
Actual Time 6:10 AM CDT 8:47 PM CDT
Civil Twilight 5:35 AM CDT 9:22 PM CDT
Nautical Twilight 4:51 AM CDT 10:05 PM CDT
Astronomical Twilight 4:01 AM CDT 10:55 PM CDT
Moon 6:06 AM CDT (8/6) 8:17 PM CDT (8/6)
Length of Visible Light 15h 46m
Length of Day
14h 37m
Waning Crescent, 0% of the Moon is Illuminated
Aug 6
Waning Crescent
Aug 6
New
Aug 14
First Quarter
Aug 20
Full
Aug 28
Last Quarter

Hourly Weather History & Observations

Time (CDT) Temp. Dew Point Humidity Pressure Visibility Wind Dir Wind Speed Gust Speed Precip Events Conditions
12:15 AM 53.6 °F 51.8 °F 94% 29.88 in 10.0 mi SSW 3.5 mph - N/A   Clear
12:35 AM 57.2 °F 55.4 °F 94% 29.87 in 10.0 mi SSW 5.8 mph - N/A   Clear
12:55 AM 55.4 °F 53.6 °F 94% 29.84 in 10.0 mi Calm Calm - N/A   Clear
1:15 AM 57.2 °F 55.4 °F 94% 29.83 in 10.0 mi South 4.6 mph - N/A   Clear
1:35 AM 57.2 °F 55.4 °F 94% 29.84 in 10.0 mi SSW 4.6 mph - N/A   Clear
1:55 AM 55.4 °F 55.4 °F 100% 29.83 in 10.0 mi South 4.6 mph - N/A   Clear
2:15 AM 57.2 °F 55.4 °F 94% 29.83 in 10.0 mi South 3.5 mph - N/A   Clear
2:35 AM 55.4 °F 55.4 °F 100% 29.84 in 7.0 mi SW 4.6 mph - N/A   Clear
2:55 AM 57.2 °F 55.4 °F 94% 29.82 in 10.0 mi South 3.5 mph - N/A   Clear
3:15 AM 57.2 °F 55.4 °F 94% 29.81 in 10.0 mi SSE 3.5 mph - N/A   Clear
3:35 AM 55.4 °F 55.4 °F 100% 29.81 in 10.0 mi SE 4.6 mph - N/A   Clear
3:56 AM 53.6 °F 53.6 °F 100% 29.79 in 10.0 mi SSE 4.6 mph - N/A   Clear
4:15 AM 55.4 °F 53.6 °F 94% 29.79 in 10.0 mi SSE 3.5 mph - N/A   Clear
4:35 AM 55.4 °F 55.4 °F 100% 29.78 in 7.0 mi South 3.5 mph - N/A   Clear
4:56 AM 55.4 °F 55.4 °F 100% 29.78 in 10.0 mi SE 5.8 mph - N/A   Clear
5:15 AM 55.4 °F 55.4 °F 100% 29.78 in 10.0 mi SSE 3.5 mph - N/A   Clear
5:35 AM 55.4 °F 55.4 °F 100% 29.78 in 10.0 mi South 4.6 mph - N/A   Clear
5:56 AM 55.4 °F 55.4 °F 100% 29.78 in 10.0 mi SSE 4.6 mph - N/A   Clear
6:15 AM 57.2 °F 55.4 °F 94% 29.79 in 10.0 mi SSE 5.8 mph - N/A   Clear
6:35 AM 57.2 °F 55.4 °F 94% 29.79 in 10.0 mi SSE 5.8 mph - N/A   Clear
6:55 AM 59.0 °F 55.4 °F 88% 29.79 in 10.0 mi South 4.6 mph - N/A   Clear
7:15 AM 59.0 °F 55.4 °F 88% 29.79 in 10.0 mi SSE 5.8 mph - N/A Rain Light Rain
7:35 AM 59.0 °F 57.2 °F 94% 29.79 in 10.0 mi South 3.5 mph - N/A   Scattered Clouds
7:55 AM 60.8 °F 55.4 °F 82% 29.78 in 10.0 mi South 5.8 mph - N/A   Scattered Clouds
8:15 AM 60.8 °F 55.4 °F 82% 29.77 in 10.0 mi ESE 3.5 mph - N/A   Light Drizzle
8:35 AM 60.8 °F 55.4 °F 82% 29.81 in 10.0 mi West 3.5 mph - N/A Rain Rain
8:55 AM 59.0 °F 57.2 °F 94% 29.80 in 7.0 mi SSW 5.8 mph - N/A Rain Rain
9:15 AM 59.0 °F 59.0 °F 100% 29.78 in 7.0 mi South 4.6 mph - N/A Rain Light Rain
9:35 AM 60.8 °F 59.0 °F 94% 29.78 in 10.0 mi Calm Calm - N/A Rain Light Rain
9:55 AM 60.8 °F 59.0 °F 94% 29.77 in 10.0 mi SE 5.8 mph - N/A   Light Drizzle
10:15 AM 60.8 °F 59.0 °F 94% 29.77 in 10.0 mi Calm Calm - N/A   Scattered Clouds
10:35 AM 62.6 °F 60.8 °F 94% 29.77 in 10.0 mi South 3.5 mph - N/A   Scattered Clouds
10:55 AM 64.4 °F 60.8 °F 88% 29.77 in 10.0 mi SE 3.5 mph - N/A Rain Light Rain
11:15 AM 68.0 °F 62.6 °F 83% 29.76 in 10.0 mi SSE 5.8 mph - N/A   Clear
11:35 AM 68.0 °F 62.6 °F 83% 29.76 in 10.0 mi SE 5.8 mph - N/A   Clear
11:55 AM 71.6 °F 62.6 °F 73% 29.75 in 10.0 mi SSE 8.1 mph - N/A   Clear
12:15 PM 71.6 °F 62.6 °F 73% 29.75 in 10.0 mi South 5.8 mph - N/A   Scattered Clouds
12:35 PM 73.4 °F 62.6 °F 69% 29.75 in 10.0 mi SW 5.8 mph - N/A   Scattered Clouds
12:55 PM 73.4 °F 60.8 °F 65% 29.76 in 10.0 mi WSW 3.5 mph - N/A   Clear
1:15 PM 73.4 °F 55.4 °F 53% 29.76 in 10.0 mi SW 3.5 mph - N/A   Scattered Clouds
1:35 PM 73.4 °F 55.4 °F 53% 29.76 in 10.0 mi Calm Calm - N/A   Scattered Clouds
1:55 PM 73.4 °F 60.8 °F 65% 29.76 in 10.0 mi North 8.1 mph - N/A   Mostly Cloudy
2:15 PM 69.8 °F 60.8 °F 73% 29.77 in 10.0 mi North 6.9 mph - N/A   Scattered Clouds
2:35 PM 71.6 °F 60.8 °F 69% 29.76 in 10.0 mi North 8.1 mph - N/A   Scattered Clouds
2:55 PM 69.8 °F 60.8 °F 73% 29.76 in 10.0 mi North 5.8 mph - N/A Rain Light Rain
3:15 PM 68.0 °F 60.8 °F 78% 29.77 in 10.0 mi Calm Calm - N/A   Light Drizzle
3:35 PM 71.6 °F 59.0 °F 64% 29.76 in 10.0 mi North 8.1 mph - N/A   Clear
3:55 PM 68.0 °F 60.8 °F 78% 29.76 in 10.0 mi North 6.9 mph - N/A Rain Light Rain
4:15 PM 64.4 °F 60.8 °F 88% 29.76 in 10.0 mi North 6.9 mph - N/A Rain Rain
4:35 PM 64.4 °F 60.8 °F 88% 29.76 in 10.0 mi North 3.5 mph - N/A Rain Light Rain
4:55 PM 64.4 °F 62.6 °F 94% 29.77 in 10.0 mi North 6.9 mph - N/A Rain Light Rain
5:15 PM 64.4 °F 62.6 °F 94% 29.77 in 10.0 mi North 6.9 mph - N/A   Scattered Clouds
5:35 PM 64.4 °F 60.8 °F 88% 29.78 in 10.0 mi NNW 10.4 mph - N/A Rain Light Rain
5:55 PM 64.4 °F 62.6 °F 94% 29.78 in 3.0 mi North 9.2 mph - N/A Rain , Thunderstorm Heavy Thunderstorms and Rain
6:15 PM 62.6 °F 60.8 °F 94% 29.78 in 10.0 mi NNW 5.8 mph - N/A Rain Light Rain
6:35 PM 64.4 °F 60.8 °F 88% 29.80 in 10.0 mi NW 9.2 mph - N/A Rain Light Rain
6:56 PM 64.4 °F 62.6 °F 94% 29.78 in 10.0 mi NNW 6.9 mph - N/A Rain Light Rain
7:15 PM 64.4 °F 62.6 °F 94% 29.78 in 10.0 mi North 5.8 mph - N/A Rain Light Rain
7:35 PM 64.4 °F 60.8 °F 88% 29.78 in 10.0 mi North 9.2 mph - N/A   Scattered Clouds
7:56 PM 64.4 °F 60.8 °F 88% 29.78 in 10.0 mi North 11.5 mph 17.3 mph N/A   Clear
8:15 PM 62.6 °F 60.8 °F 94% 29.80 in 10.0 mi North 12.7 mph 17.3 mph N/A   Clear
8:35 PM 62.6 °F 60.8 °F 94% 29.81 in 10.0 mi North 8.1 mph 16.1 mph N/A   Clear
8:56 PM 62.6 °F 60.8 °F 94% 29.83 in 10.0 mi NNW 11.5 mph - N/A   Mostly Cloudy
9:15 PM 62.6 °F 59.0 °F 88% 29.84 in 10.0 mi North 16.1 mph - N/A   Overcast
9:35 PM 60.8 °F 59.0 °F 94% 29.86 in 10.0 mi NNW 10.4 mph 16.1 mph N/A   Overcast
9:56 PM 60.8 °F 57.2 °F 88% 29.87 in 10.0 mi NNW 10.4 mph - N/A   Overcast
10:15 PM 60.8 °F 57.2 °F 88% 29.88 in 10.0 mi North 10.4 mph - N/A   Mostly Cloudy
10:35 PM 59.0 °F 57.2 °F 94% 29.88 in 10.0 mi North 6.9 mph - N/A   Overcast
10:56 PM 59.0 °F 57.2 °F 94% 29.88 in 10.0 mi North 6.9 mph - N/A   Scattered Clouds
11:15 PM 59.0 °F 55.4 °F 88% 29.88 in 10.0 mi NNW 6.9 mph - N/A   Clear
11:36 PM 57.2 °F 55.4 °F 94% 29.89 in 10.0 mi NNW 6.9 mph - N/A   Clear
11:55 PM 57.2 °F 55.4 °F 94% 29.90 in 10.0 mi NNW 8.1 mph - N/A   Clear